Location: Newark
(7.0858°N, 171.3717°E)
Time: 16:38:05
(UTC+00:00)

Altair - Pass Details

Date: 04 December 2020
Orbit: 1501 x 1682 km, 47.2° (Epoch: 20 January)

Event Time Altitude Azimuth Distance (km) Brightness Sun altitude
Exits shadow 14:57:58 30° 85° (E) 2,472 8.7 -50.1°
Drops below altitude 10° 15:03:16 10° 112° (ESE) 3,748 10.0 -49.0°
Sets 15:06:41 0° 120° (ESE) 4,759 10.8 -48.2°
